period_start,C,m1,H,J0,J1,J2,J3,J4,J5,JA,JB,JC,JD,JJ,JK,JN,#
2015-05-19 00:00:11,0.23,1.32,0.00,23.00,27.07,29.88,4.77,24.09,1008.80,2035.93,2921.79,2957.14,3187.95,350.21,345.19,23.08,0000 0000 0000 0000 000000
2015-05-19 00:05:13,0.22,1.32,0.00,23.13,27.07,29.85,4.71,24.13,1008.79,2035.92,2919.31,2955.43,3186.12,349.83,344.68,23.11,0000 0000 0000 0000 000000
2015-05-19 00:10:14,0.22,1.33,0.00,23.37,27.09,29.81,4.79,24.15,1008.80,2035.89,2916.69,2953.55,3184.18,349.97,344.50,23.14,0000 0000 0000 0000 000000
2015-05-19 00:15:15,0.20,1.34,0.00,23.29,27.10,29.86,4.74,24.16,1008.79,2035.67,2913.88,2951.60,3182.10,350.09,344.71,23.17,0000 0000 0000 0000 000000
2015-05-19 00:20:16,0.20,1.34,0.00,23.13,27.12,29.90,4.79,24.13,1008.80,2035.38,2911.24,2949.83,3180.14,350.34,345.24,23.20,0000 0000 0000 0000 000000
2015-05-19 00:25:18,0.20,1.35,0.00,23.17,27.12,29.90,4.78,24.13,1008.80,2035.20,2908.56,2948.01,3178.25,350.35,345.25,23.23,0000 0000 0000 0000 000000
2015-05-19 00:30:19,0.24,1.35,0.00,23.13,27.12,29.93,4.77,24.18,1008.77,2035.13,2905.66,2946.04,3176.19,350.56,345.37,23.26,0000 0000 0000 0000 000000
2015-05-19 00:35:21,0.26,1.36,0.00,23.09,27.13,29.95,4.79,24.11,1008.77,2035.06,2902.59,2943.99,3173.92,350.52,345.33,23.29,0000 0000 0000 0000 000000
2015-05-19 00:40:22,0.26,1.37,0.00,23.06,27.15,29.98,4.68,24.13,1008.71,2035.05,2899.48,2941.92,3171.67,350.05,345.00,23.32,0000 0000 0000 0000 000000
2015-05-19 00:45:23,0.27,1.38,0.00,23.07,27.15,29.97,4.78,24.11,1008.76,2035.03,2896.52,2939.85,3169.48,349.75,344.60,23.35,0000 0000 0000 0000 000000
2015-05-19 00:50:25,0.22,1.38,0.00,23.20,27.15,29.93,4.72,24.08,1008.62,2035.03,2893.82,2937.93,3167.53,350.34,345.06,23.38,0000 0000 0000 0000 000000
2015-05-19 00:55:26,0.22,1.39,0.00,23.38,27.17,29.90,4.72,24.09,1008.47,2035.04,2891.37,2936.28,3165.64,350.15,344.43,23.41,0000 0000 0000 0000 000000
2015-05-19 01:00:27,0.23,1.40,0.00,23.29,27.18,29.95,4.81,24.18,1008.40,2035.01,2888.63,2934.43,3163.65,350.33,345.05,23.44,0000 0000 0000 0000 000000
2015-05-19 01:05:29,0.16,1.40,0.00,23.25,27.20,29.93,4.81,24.08,1008.35,2035.00,2886.28,2932.92,3162.08,350.08,344.67,23.47,0000 0000 0000 0000 000000
2015-05-19 01:10:30,0.15,1.41,0.00,23.27,27.20,29.96,4.65,24.13,1008.36,2035.00,2884.74,2931.83,3160.96,349.78,344.39,23.49,0000 0000 0000 0000 000000
2015-05-19 01:15:31,0.09,1.41,0.00,23.27,27.21,29.96,4.78,24.14,1008.33,2035.00,2883.49,2931.03,3160.05,349.97,344.57,23.52,0000 0000 0000 0000 000000
2015-05-19 01:20:33,0.09,1.41,0.00,23.25,27.22,29.98,4.71,24.01,1008.34,2035.00,2882.71,2930.39,3159.31,349.84,344.41,23.55,0000 0000 0000 0000 000000
2015-05-19 01:25:34,0.02,1.42,0.00,23.27,27.22,30.01,4.78,24.13,1008.34,2035.00,2882.02,2930.00,3158.99,350.26,344.51,23.58,0000 0000 0000 0000 000000
2015-05-19 01:30:35,0.06,1.42,0.00,23.27,27.22,30.01,4.73,24.12,1008.35,2035.00,2881.38,2929.87,3158.39,350.18,344.80,23.61,0000 0000 0000 0000 000000
2015-05-19 01:35:36,0.05,1.42,0.00,23.27,27.22,30.02,4.76,24.04,1008.33,2035.00,2880.92,2929.11,3158.00,349.92,344.66,23.64,0000 0000 0000 0000 000000
2015-05-19 01:40:37,0.03,1.42,0.00,23.28,27.22,30.01,4.75,24.11,1008.33,2035.00,2880.14,2928.99,3157.81,350.08,344.75,23.67,0000 0000 0000 0000 000000
2015-05-19 01:45:39,0.06,1.42,0.00,23.29,27.23,30.03,4.68,24.07,1008.34,2035.00,2879.84,2928.64,3157.07,350.01,344.69,23.70,0000 0000 0000 0000 000000
2015-05-19 01:50:40,0.05,1.42,0.00,23.31,27.25,30.02,4.73,24.00,1008.33,2035.00,2879.06,2928.03,3156.86,349.84,344.35,23.73,0000 0000 0000 0000 000000
2015-05-19 01:55:41,0.03,1.42,0.00,23.35,27.25,30.02,4.79,24.15,1008.33,2035.00,2878.81,2927.99,3156.12,350.61,345.01,23.76,0000 0000 0000 0000 000000
2015-05-19 02:00:42,0.04,1.43,0.00,23.38,27.25,30.01,4.78,24.13,1008.33,2035.00,2878.06,2927.71,3156.00,349.74,343.99,23.79,0000 0000 0000 0000 000000
2015-05-19 02:05:43,0.07,1.43,0.00,23.40,27.25,30.01,4.65,24.01,1008.33,2035.00,2877.66,2927.07,3155.58,349.35,343.88,23.82,0000 0000 0000 0000 000000
2015-05-19 02:10:44,0.03,1.43,0.00,23.42,27.25,30.00,4.75,24.10,1008.33,2035.00,2877.03,2926.98,3155.03,349.85,344.40,23.85,0000 0000 0000 0000 000000
2015-05-19 02:15:46,0.06,1.43,0.00,23.45,27.26,29.98,4.75,24.09,1008.32,2034.99,2876.42,2926.36,3154.95,350.23,344.50,23.87,0000 0000 0000 0000 000000
2015-05-19 02:20:47,0.04,1.43,0.00,23.49,27.27,29.99,4.75,24.05,1008.32,2034.99,2876.01,2926.03,3154.35,350.05,344.12,23.90,0000 0000 0000 0000 000000
2015-05-19 02:25:49,0.02,1.43,0.00,23.52,27.27,29.97,4.68,23.99,1008.32,2034.99,2875.69,2925.99,3154.02,350.30,344.46,23.93,0000 0000 0000 0000 000000
2015-05-19 02:30:50,0.05,1.43,0.00,23.54,27.27,29.98,4.64,24.08,1008.32,2034.99,2875.04,2925.65,3153.85,349.34,343.39,23.96,0000 0000 0000 0000 000000
2015-05-19 02:35:51,0.06,1.44,0.00,23.57,27.27,29.97,4.78,24.06,1008.32,2034.99,2874.71,2925.06,3153.14,350.16,344.39,23.99,0000 0000 0000 0000 000000
2015-05-19 02:40:53,0.01,1.44,0.00,23.60,27.28,29.96,4.71,24.11,1008.32,2034.98,2874.04,2924.99,3153.00,350.26,344.58,24.02,0000 0000 0000 0000 000000
2015-05-19 02:45:54,0.02,1.44,0.00,23.62,27.29,29.95,4.69,24.13,1008.32,2034.99,2873.90,2924.88,3152.87,349.66,343.79,24.05,0000 0000 0000 0000 000000
2015-05-19 02:50:56,0.08,1.44,0.00,23.66,27.30,29.95,4.73,24.07,1008.32,2034.99,2873.17,2924.20,3152.12,350.26,344.31,24.08,0000 0000 0000 0000 000000
2015-05-19 02:55:57,0.01,1.44,0.00,23.71,27.30,29.92,4.76,24.23,1008.32,2034.99,2872.92,2924.01,3151.99,350.06,344.11,24.11,0000 0000 0000 0000 000000
2015-05-19 03:00:58,0.03,1.44,0.00,23.74,27.30,29.93,4.72,24.25,1008.32,2034.98,2872.19,2923.97,3151.72,349.47,343.55,24.14,0000 0000 0000 0000 000000
2015-05-19 03:05:59,0.06,1.44,0.00,23.77,27.32,29.92,4.69,24.07,1008.32,2034.98,2871.92,2923.31,3151.06,350.22,344.03,24.17,0000 0000 0000 0000 000000
2015-05-19 03:11:01,0.03,1.44,0.00,23.81,27.32,29.90,4.73,24.14,1008.32,2034.98,2871.18,2923.01,3150.97,349.83,343.79,24.20,0000 0000 0000 0000 000000
2015-05-19 03:16:02,0.03,1.44,0.00,23.82,27.32,29.90,4.70,24.13,1008.32,2034.98,2870.88,2922.93,3150.32,350.15,344.01,24.23,0000 0000 0000 0000 000000
2015-05-19 03:21:03,0.07,1.45,0.00,23.84,27.34,29.89,4.73,24.16,1008.32,2034.98,2870.12,2922.33,3150.01,350.09,343.91,24.26,0000 0000 0000 0000 000000
2015-05-19 03:26:05,0.02,1.45,0.00,23.87,27.35,29.90,4.79,24.16,1008.32,2034.98,2869.76,2922.01,3149.87,350.13,343.95,24.29,0000 0000 0000 0000 000000
2015-05-19 03:31:06,0.04,1.45,0.00,23.91,27.35,29.90,4.84,24.17,1008.32,2034.98,2869.16,2921.98,3149.19,350.56,344.41,24.31,0000 0000 0000 0000 000000
2015-05-19 03:36:07,0.04,1.45,0.00,23.93,27.36,29.90,4.67,24.04,1008.32,2034.96,2868.88,2921.46,3149.00,349.76,343.44,24.34,0000 0000 0000 0000 000000
2015-05-19 03:41:09,0.04,1.45,0.00,23.98,27.37,29.90,4.65,24.07,1008.32,2034.97,2868.19,2921.02,3148.92,349.26,342.87,24.37,0000 0000 0000 0000 000000
2015-05-19 03:46:10,0.03,1.45,0.00,24.01,27.37,29.89,4.65,24.12,1008.32,2034.98,2867.98,2921.00,3148.24,349.93,343.60,24.40,0000 0000 0000 0000 000000
2015-05-19 03:51:11,0.03,1.45,0.00,24.04,27.38,29.90,4.64,24.02,1008.32,2034.98,2867.48,2920.91,3148.00,350.17,343.81,24.43,0000 0000 0000 0000 000000
2015-05-19 03:56:12,0.04,1.45,0.00,24.07,27.40,29.88,4.65,24.10,1008.31,2034.93,2866.99,2920.26,3147.78,349.86,343.60,24.46,0000 0000 0000 0000 000000
2015-05-19 04:01:13,0.04,1.46,0.00,24.11,27.40,29.89,4.69,24.08,1008.31,2034.95,2866.63,2920.00,3147.07,350.14,343.53,24.49,0000 0000 0000 0000 000000
2015-05-19 04:06:15,0.01,1.46,0.00,24.12,27.41,29.90,4.70,24.07,1008.31,2034.92,2866.03,2919.97,3147.00,349.89,343.58,24.52,0000 0000 0000 0000 000000
2015-05-19 04:11:16,0.05,1.46,0.00,24.13,27.42,29.91,4.74,24.07,1008.31,2034.94,2865.79,2919.57,3146.83,350.02,343.50,24.55,0000 0000 0000 0000 000000
2015-05-19 04:16:17,0.06,1.46,0.00,24.16,27.42,29.92,4.69,24.07,1008.31,2034.92,2865.07,2919.03,3146.12,350.05,343.70,24.58,0000 0000 0000 0000 000000
2015-05-19 04:21:19,0.01,1.46,0.00,24.17,27.43,29.93,4.76,24.07,1008.31,2034.87,2864.82,2918.99,3146.00,349.76,343.44,24.61,0000 0000 0000 0000 000000
2015-05-19 04:26:20,0.06,1.46,0.00,24.17,27.45,29.94,4.76,24.01,1008.30,2034.80,2864.07,2918.59,3145.64,350.39,343.86,24.64,0000 0000 0000 0000 000000
2015-05-19 04:31:21,-0.01,1.46,0.00,24.19,27.45,29.94,4.76,24.08,1008.31,2034.62,2863.86,2918.04,3145.05,350.39,343.59,24.67,0000 0000 0000 0000 000000
2015-05-19 04:36:22,-0.01,1.46,0.00,24.20,27.46,29.96,4.66,24.06,1008.31,2034.33,2863.08,2917.98,3144.89,350.10,343.44,24.70,0000 0000 0000 0000 000000
2015-05-19 04:41:23,0.07,1.46,0.00,24.20,27.47,29.96,4.66,24.05,1008.30,2034.32,2862.77,2917.48,3144.20,349.97,343.54,24.72,0000 0000 0000 0000 000000
2015-05-19 04:46:25,0.01,1.46,0.00,24.22,27.47,29.98,4.66,23.96,1008.31,2034.20,2862.04,2917.02,3143.99,349.81,343.24,24.75,0000 0000 0000 0000 000000
2015-05-19 04:51:26,0.02,1.46,0.00,24.24,27.49,29.99,4.67,23.93,1008.30,2034.10,2861.82,2916.99,3143.70,350.39,343.60,24.78,0000 0000 0000 0000 000000
2015-05-19 04:56:27,0.06,1.47,0.00,24.25,27.50,30.00,4.69,24.17,1008.26,2034.03,2861.10,2916.42,3143.05,349.44,342.94,24.81,0000 0000 0000 0000 000000
2015-05-19 05:01:28,0.01,1.47,0.00,24.25,27.50,30.00,4.75,24.13,1008.25,2034.03,2860.94,2916.01,3142.98,350.55,343.81,24.84,0000 0000 0000 0000 000000
2015-05-19 05:06:30,0.04,1.47,0.00,24.27,27.52,30.02,4.67,24.00,1008.29,2034.04,2860.24,2916.00,3142.70,350.25,343.61,24.87,0000 0000 0000 0000 000000
2015-05-19 05:11:31,0.01,1.47,0.00,24.30,27.52,30.03,4.67,24.02,1008.29,2034.04,2860.00,2915.92,3142.07,349.92,343.20,24.90,0000 0000 0000 0000 000000
2015-05-19 05:16:33,0.07,1.47,0.00,24.32,27.52,30.03,4.64,24.15,1008.26,2034.02,2859.40,2915.22,3142.00,349.65,343.00,24.93,0000 0000 0000 0000 000000
2015-05-19 05:21:34,0.01,1.47,0.00,24.34,27.55,30.04,4.70,24.02,1008.27,2034.04,2859.01,2915.01,3141.81,350.30,343.35,24.96,0000 0000 0000 0000 000000
2015-05-19 05:26:35,0.03,1.47,0.00,24.35,27.55,30.05,4.66,24.08,1008.22,2034.02,2858.67,2914.98,3141.07,350.18,343.43,24.99,0000 0000 0000 0000 000000
2015-05-19 05:31:36,0.05,1.47,0.00,24.37,27.56,30.06,4.67,23.88,1008.13,2034.00,2858.05,2914.45,3140.99,349.86,343.09,25.02,0000 0000 0000 0000 000000
2015-05-19 05:36:38,0.06,1.47,0.00,24.37,27.57,30.06,4.71,24.10,1008.01,2034.00,2857.66,2914.02,3140.51,350.44,343.62,25.05,0000 0000 0000 0000 000000
2015-05-19 05:41:39,0.01,1.48,0.00,24.37,27.57,30.07,4.67,24.04,1007.94,2034.00,2857.05,2913.97,3140.01,350.41,343.45,25.08,0000 0000 0000 0000 000000
2015-05-19 05:46:41,0.05,1.48,0.00,24.37,27.59,30.09,4.72,24.02,1008.03,2034.00,2856.77,2913.39,3139.90,349.96,343.04,25.11,0000 0000 0000 0000 000000
2015-05-19 05:51:42,0.06,1.48,0.00,24.39,27.60,30.10,4.70,24.01,1008.14,2034.00,2856.05,2913.01,3139.11,349.82,342.95,25.13,0000 0000 0000 0000 000000
2015-05-19 05:56:43,0.02,1.48,0.00,24.40,27.60,30.11,4.71,24.18,1008.16,2034.00,2855.74,2912.98,3139.00,349.98,343.05,25.16,0000 0000 0000 0000 000000
2015-05-19 06:01:44,0.05,1.48,0.00,24.42,27.62,30.12,4.73,23.93,1008.15,2034.00,2855.06,2912.57,3138.77,350.55,343.69,25.19,0000 0000 0000 0000 000000
2015-05-19 06:06:46,0.04,1.48,0.00,24.42,27.62,30.12,4.70,23.94,1008.10,2034.00,2854.87,2912.04,3138.08,350.27,343.54,25.22,0000 0000 0000 0000 000000
2015-05-19 06:11:47,0.02,1.48,0.00,24.45,27.63,30.13,4.72,24.00,1008.25,2034.00,2854.15,2911.98,3137.98,350.44,343.64,25.25,0000 0000 0000 0000 000000
2015-05-19 06:16:48,0.03,1.48,0.00,24.47,27.65,30.14,4.75,24.06,1008.16,2033.99,2853.99,2911.76,3137.64,350.72,343.78,25.28,0000 0000 0000 0000 000000
2015-05-19 06:21:49,0.07,1.49,0.00,24.50,27.65,30.15,4.68,23.96,1008.01,2033.98,2853.34,2911.07,3137.03,349.77,342.80,25.31,0000 0000 0000 0000 000000
2015-05-19 06:26:50,0.00,1.49,0.00,24.50,27.66,30.16,4.68,24.06,1007.88,2033.98,2852.99,2910.99,3136.97,350.13,343.14,25.34,0000 0000 0000 0000 000000
2015-05-19 06:31:51,0.08,1.49,0.00,24.52,27.67,30.16,4.68,24.01,1007.90,2033.98,2852.40,2910.58,3136.38,350.00,343.05,25.37,0000 0000 0000 0000 000000
2015-05-19 06:36:53,0.02,1.49,0.00,24.53,27.68,30.17,4.65,24.07,1007.93,2033.98,2851.99,2910.04,3136.00,349.73,342.47,25.40,0000 0000 0000 0000 000000
2015-05-19 06:41:54,0.03,1.49,0.00,24.54,27.70,30.18,4.69,24.08,1007.94,2033.96,2851.58,2910.00,3135.74,350.23,343.12,25.43,0000 0000 0000 0000 000000
2015-05-19 06:46:56,0.04,1.49,0.00,24.55,27.70,30.19,4.71,24.05,1008.00,2033.90,2851.00,2909.66,3135.05,350.37,343.19,25.46,0000 0000 0000 0000 000000
2015-05-19 06:51:57,0.03,1.49,0.00,24.57,27.70,30.20,4.71,24.07,1008.05,2033.85,2850.55,2909.04,3135.00,350.08,343.02,25.49,0000 0000 0000 0000 000000
2015-05-19 06:56:59,-0.04,1.49,0.00,24.57,27.72,30.21,4.77,24.18,1008.18,2033.53,2850.01,2908.96,3134.74,350.43,343.25,25.52,0000 0000 0000 0000 000000
2015-05-19 07:02:00,0.07,1.49,0.00,24.57,27.72,30.22,4.72,23.89,1008.27,2033.36,2849.55,2908.47,3134.06,350.63,343.63,25.54,0000 0000 0000 0000 000000
2015-05-19 07:07:01,0.01,1.49,0.00,24.57,27.73,30.23,4.68,23.96,1008.28,2033.28,2849.03,2908.03,3134.00,350.32,343.34,25.57,0000 0000 0000 0000 000000
2015-05-19 07:12:02,-0.02,1.49,0.00,24.59,27.75,30.24,4.77,24.04,1008.30,2033.17,2848.88,2908.00,3133.74,350.00,342.96,25.60,0000 0000 0000 0000 000000
2015-05-19 07:17:03,0.06,1.50,0.00,24.58,27.75,30.25,4.67,23.98,1008.30,2033.18,2848.13,2907.94,3133.08,349.51,342.58,25.63,0000 0000 0000 0000 000000
2015-05-19 07:22:05,0.03,1.50,0.00,24.60,27.75,30.26,4.76,24.09,1008.31,2033.06,2847.99,2907.27,3133.00,349.77,342.91,25.66,0000 0000 0000 0000 000000
2015-05-19 07:27:06,0.03,1.50,0.00,24.61,27.77,30.26,4.69,24.03,1008.31,2033.05,2847.56,2907.01,3132.96,350.10,342.83,25.69,0000 0000 0000 0000 000000
2015-05-19 07:32:07,0.03,1.50,0.00,24.63,27.77,30.27,4.59,24.02,1008.31,2033.07,2847.04,2907.00,3132.49,349.85,342.75,25.72,0000 0000 0000 0000 000000
2015-05-19 07:37:08,0.03,1.50,0.00,24.66,27.78,30.28,4.75,24.04,1008.31,2033.04,2846.83,2906.76,3132.01,350.03,343.05,25.75,0000 0000 0000 0000 000000
2015-05-19 07:42:09,0.05,1.50,0.00,24.67,27.79,30.28,4.68,24.04,1008.31,2033.01,2846.07,2906.07,3131.92,350.06,342.97,25.78,0000 0000 0000 0000 000000
2015-05-19 07:47:11,0.02,1.50,0.00,24.69,27.80,30.29,4.68,24.05,1008.31,2033.00,2845.90,2906.00,3131.29,349.99,342.81,25.81,0000 0000 0000 0000 000000
2015-05-19 07:52:12,0.03,1.50,0.00,24.71,27.80,30.31,4.70,24.01,1008.31,2033.01,2845.15,2905.88,3131.01,349.93,342.95,25.84,0000 0000 0000 0000 000000
2015-05-19 07:57:13,0.04,1.50,0.00,24.72,27.81,30.31,4.76,24.18,1008.31,2033.00,2844.95,2905.25,3130.86,350.28,343.07,25.87,0000 0000 0000 0000 000000
2015-05-19 08:02:15,0.04,1.51,0.00,24.72,27.82,30.31,4.75,24.07,1008.31,2033.00,2844.49,2905.01,3130.15,350.26,343.11,25.90,0000 0000 0000 0000 000000
2015-05-19 08:07:16,0.01,1.51,0.00,24.72,27.82,30.32,4.73,24.02,1008.31,2033.00,2844.03,2904.98,3130.00,350.33,343.22,25.93,0000 0000 0000 0000 000000
2015-05-19 08:12:17,0.03,1.51,0.00,24.71,27.83,30.33,4.69,24.07,1008.31,2033.00,2843.83,2904.69,3129.95,350.49,343.24,25.95,0000 0000 0000 0000 000000
2015-05-19 08:17:18,0.07,1.51,0.00,24.70,27.85,30.35,4.66,24.01,1008.31,2033.00,2843.09,2904.07,3129.23,350.07,342.65,25.98,0000 0000 0000 0000 000000
2015-05-19 08:22:20,0.00,1.51,0.00,24.70,27.85,30.35,4.69,23.92,1008.31,2033.00,2842.99,2904.00,3129.01,350.17,343.05,26.01,0000 0000 0000 0000 000000
2015-05-19 08:27:21,0.03,1.51,0.00,24.70,27.85,30.36,4.73,24.07,1008.31,2033.00,2842.45,2903.99,3128.99,349.89,342.64,26.04,0000 0000 0000 0000 000000
2015-05-19 08:32:22,0.06,1.51,0.00,24.69,27.86,30.37,4.64,24.00,1008.31,2033.00,2842.02,2903.50,3128.54,349.37,342.18,26.07,0000 0000 0000 0000 000000
2015-05-19 08:37:23,0.03,1.51,0.00,24.69,27.87,30.37,4.64,23.93,1008.31,2032.99,2841.72,2903.04,3128.03,350.07,343.08,26.10,0000 0000 0000 0000 000000
2015-05-19 08:42:25,0.01,1.51,0.00,24.69,27.87,30.38,4.67,24.00,1008.32,2032.99,2841.04,2903.00,3127.99,350.40,343.29,26.13,0000 0000 0000 0000 000000
2015-05-19 08:47:25,0.03,1.51,0.00,24.67,27.87,30.39,4.70,23.97,1008.32,2032.99,2840.89,2902.83,3127.65,350.35,343.25,26.16,0000 0000 0000 0000 000000
2015-05-19 08:52:27,0.07,1.52,0.00,24.68,27.88,30.39,4.70,24.01,1008.32,2032.98,2840.11,2902.11,3127.03,350.25,343.09,26.19,0000 0000 0000 0000 000000
2015-05-19 08:57:28,0.01,1.52,0.00,24.67,27.89,30.39,4.70,24.11,1008.32,2032.94,2839.74,2902.00,3126.88,350.23,342.84,26.22,0000 0000 0000 0000 000000
2015-05-19 09:02:29,0.05,1.52,0.00,24.65,27.90,30.40,4.68,24.10,1008.32,2032.97,2839.08,2901.87,3126.31,349.49,342.34,26.25,0000 0000 0000 0000 000000
2015-05-19 09:07:31,0.04,1.52,0.00,24.65,27.90,30.40,4.74,23.92,1008.32,2032.98,2838.97,2901.24,3126.01,350.48,343.38,26.28,0000 0000 0000 0000 000000
2015-05-19 09:12:32,0.03,1.52,0.00,24.63,27.90,30.41,4.72,24.01,1008.32,2032.96,2838.27,2901.01,3125.96,349.57,342.43,26.31,0000 0000 0000 0000 000000
2015-05-19 09:17:33,0.02,1.52,0.00,24.62,27.90,30.41,4.75,23.96,1008.33,2032.94,2837.99,2900.98,3125.39,350.23,343.47,26.34,0000 0000 0000 0000 000000
2015-05-19 09:22:34,0.03,1.52,0.00,24.61,27.90,30.43,4.80,24.05,1008.34,2032.97,2837.76,2900.88,3125.01,350.57,343.55,26.37,0000 0000 0000 0000 000000
2015-05-19 09:27:36,0.06,1.52,0.00,24.60,27.92,30.43,4.72,23.98,1008.34,2032.98,2837.09,2900.28,3125.00,349.67,342.65,26.39,0000 0000 0000 0000 000000
2015-05-19 09:32:37,0.01,1.53,0.00,24.58,27.92,30.43,4.75,23.96,1008.35,2032.97,2836.98,2900.01,3124.89,350.18,343.19,26.42,0000 0000 0000 0000 000000
2015-05-19 09:37:39,0.05,1.53,0.00,24.57,27.92,30.44,4.64,23.94,1008.41,2032.97,2836.47,2899.99,3124.33,350.31,343.28,26.45,0000 0000 0000 0000 000000
2015-05-19 09:42:40,0.01,1.53,0.00,24.57,27.92,30.46,4.73,23.94,1008.35,2032.97,2836.01,2899.90,3124.01,350.23,343.27,26.48,0000 0000 0000 0000 000000
2015-05-19 09:47:42,0.04,1.53,0.00,24.55,27.92,30.47,4.78,24.02,1008.41,2032.97,2835.89,2899.27,3123.99,350.71,343.79,26.51,0000 0000 0000 0000 000000
2015-05-19 09:52:43,0.05,1.53,0.00,24.55,27.92,30.45,4.72,23.95,1008.51,2032.97,2835.11,2899.01,3123.44,350.31,343.51,26.54,0000 0000 0000 0000 000000
2015-05-19 09:57:45,0.01,1.53,0.00,24.53,27.92,30.46,4.62,24.04,1008.63,2032.95,2834.97,2898.98,3123.03,349.80,342.98,26.57,0000 0000 0000 0000 000000
2015-05-19 10:02:46,0.03,1.53,0.00,24.51,27.92,30.47,4.72,23.90,1008.69,2032.97,2834.55,2898.90,3122.99,350.05,343.30,26.60,0000 0000 0000 0000 000000
2015-05-19 10:07:47,0.04,1.53,0.00,24.49,27.92,30.49,4.71,23.93,1008.62,2032.98,2834.02,2898.43,3122.92,349.66,342.84,26.63,0000 0000 0000 0000 000000
2015-05-19 10:12:48,0.04,1.53,0.00,24.47,27.92,30.48,4.68,24.02,1008.51,2032.97,2833.87,2898.02,3122.25,349.74,343.31,26.66,0000 0000 0000 0000 000000
2015-05-19 10:17:49,0.02,1.53,0.00,24.46,27.92,30.48,4.70,23.97,1008.65,2032.93,2833.10,2898.00,3122.00,350.24,343.45,26.69,0000 0000 0000 0000 000000
2015-05-19 10:22:51,0.02,1.53,0.00,24.44,27.92,30.47,4.65,24.02,1008.76,2032.95,2833.00,2897.88,3121.96,349.76,343.02,26.72,0000 0000 0000 0000 000000
2015-05-19 10:27:52,0.07,1.54,0.00,24.43,27.92,30.48,4.72,24.01,1008.79,2032.95,2832.58,2897.29,3121.38,349.61,343.14,26.75,0000 0000 0000 0000 000000
2015-05-19 10:32:53,0.02,1.54,0.00,24.42,27.92,30.45,4.73,23.98,1008.80,2032.95,2832.03,2897.01,3121.01,350.41,343.78,26.78,0000 0000 0000 0000 000000
2015-05-19 10:37:54,0.00,1.54,0.00,24.42,27.91,30.45,4.75,23.95,1008.80,2032.97,2831.97,2897.00,3121.00,350.24,343.54,26.80,0000 0000 0000 0000 000000
2015-05-19 10:42:55,0.05,1.54,0.00,24.40,27.90,30.45,4.67,23.94,1008.80,2032.96,2831.28,2896.90,3120.73,349.81,343.21,26.83,0000 0000 0000 0000 000000
2015-05-19 10:47:56,0.04,1.54,0.00,24.39,27.90,30.45,4.79,23.92,1008.80,2032.95,2831.00,2896.33,3120.09,350.50,344.03,26.86,0000 0000 0000 0000 000000
2015-05-19 10:52:58,0.03,1.54,0.00,24.37,27.90,30.44,4.79,23.99,1008.80,2032.95,2830.59,2896.01,3120.00,350.22,343.67,26.89,0000 0000 0000 0000 000000
2015-05-19 10:57:59,0.01,1.54,0.00,24.36,27.90,30.45,4.69,24.02,1008.80,2032.92,2830.01,2895.99,3119.83,349.80,343.08,26.92,0000 0000 0000 0000 000000
2015-05-19 11:03:00,0.02,1.54,0.00,24.35,27.90,30.46,4.64,23.93,1008.80,2032.95,2829.93,2895.94,3119.30,349.58,343.04,26.95,0000 0000 0000 0000 000000
2015-05-19 11:08:01,0.07,1.54,0.00,24.33,27.90,30.49,4.73,23.91,1008.80,2032.95,2829.22,2895.37,3119.02,349.88,343.35,26.98,0000 0000 0000 0000 000000
2015-05-19 11:13:03,0.01,1.55,0.00,24.32,27.90,30.46,4.68,23.86,1008.79,2032.96,2829.00,2895.03,3119.00,350.09,343.53,27.01,0000 0000 0000 0000 000000
2015-05-19 11:18:04,0.00,1.55,0.00,24.31,27.89,30.46,4.71,23.88,1008.80,2032.96,2828.94,2895.00,3118.96,350.06,343.55,27.04,0000 0000 0000 0000 000000
2015-05-19 11:23:06,0.05,1.55,0.00,24.30,27.87,30.46,4.76,23.86,1008.80,2032.96,2828.27,2895.00,3118.35,350.31,343.71,27.07,0000 0000 0000 0000 000000
2015-05-19 11:28:07,0.02,1.55,0.00,24.28,27.87,30.47,4.72,23.88,1008.79,2032.97,2828.00,2894.83,3118.01,350.39,343.83,27.10,0000 0000 0000 0000 000000
2015-05-19 11:33:08,0.04,1.55,0.00,24.27,27.87,30.49,4.66,23.93,1008.80,2032.99,2827.88,2894.28,3117.99,349.80,343.66,27.13,0000 0000 0000 0000 000000
2015-05-19 11:38:09,0.03,1.55,0.00,24.25,27.87,30.49,4.70,23.91,1008.80,2032.97,2827.13,2894.03,3117.86,350.00,343.57,27.16,0000 0000 0000 0000 000000
2015-05-19 11:43:11,0.02,1.55,0.00,24.23,27.86,30.49,4.77,23.93,1008.80,2032.97,2826.99,2894.00,3117.27,349.81,343.45,27.19,0000 0000 0000 0000 000000
2015-05-19 11:48:12,0.02,1.55,0.00,24.21,27.85,30.51,4.68,23.98,1008.80,2032.98,2826.73,2893.97,3117.02,350.10,343.77,27.21,0000 0000 0000 0000 000000
2015-05-19 11:53:13,0.03,1.55,0.00,24.17,27.85,30.51,4.71,24.00,1008.80,2032.99,2826.09,2893.79,3117.00,350.12,343.78,27.24,0000 0000 0000 0000 000000
2015-05-19 11:58:14,0.05,1.55,0.00,24.16,27.84,30.50,4.64,24.15,1008.79,2032.99,2825.92,2893.10,3116.76,350.21,343.88,27.27,0000 0000 0000 0000 000000
2015-05-19 12:03:16,0.03,1.55,0.00,24.13,27.83,30.54,4.68,24.04,1008.79,2032.97,2825.42,2893.00,3116.23,349.69,343.45,27.30,0000 0000 0000 0000 000000
2015-05-19 12:08:17,0.01,1.56,0.00,24.11,27.82,30.54,4.66,24.05,1008.79,2032.98,2825.02,2893.00,3116.02,349.98,343.79,27.33,0000 0000 0000 0000 000000
2015-05-19 12:13:18,0.00,1.56,0.00,24.10,27.82,30.51,4.78,24.08,1008.80,2032.99,2824.96,2892.95,3116.00,350.31,343.72,27.36,0000 0000 0000 0000 000000
2015-05-19 12:18:19,0.01,1.56,0.00,24.07,27.80,30.51,4.68,24.09,1008.78,2032.99,2824.73,2892.80,3115.98,349.60,343.51,27.39,0000 0000 0000 0000 000000
2015-05-19 12:23:20,0.06,1.56,0.00,24.06,27.80,30.51,4.74,24.15,1008.73,2032.99,2824.12,2892.26,3115.82,350.14,343.84,27.42,0000 0000 0000 0000 000000
2015-05-19 12:28:22,0.02,1.56,0.00,24.04,27.80,30.51,4.67,24.03,1008.75,2032.99,2824.00,2892.02,3115.23,349.75,343.39,27.45,0000 0000 0000 0000 000000
2015-05-19 12:33:23,0.01,1.56,0.00,24.01,27.78,30.49,4.68,24.14,1008.77,2032.99,2823.77,2892.00,3115.02,350.06,343.78,27.48,0000 0000 0000 0000 000000
2015-05-19 12:38:24,0.02,1.56,0.00,23.99,27.77,30.49,4.75,24.08,1008.80,2032.99,2823.14,2892.00,3115.00,350.33,344.23,27.51,0000 0000 0000 0000 000000
2015-05-19 12:43:25,0.00,1.56,0.00,23.97,27.77,30.49,4.70,24.14,1008.80,2033.00,2823.00,2891.98,3114.99,349.78,343.47,27.54,0000 0000 0000 0000 000000
2015-05-19 12:48:27,0.01,1.56,0.00,23.94,27.75,30.50,4.72,24.05,1008.80,2033.00,2822.99,2891.84,3114.96,349.76,343.65,27.57,0000 0000 0000 0000 000000
2015-05-19 12:53:28,0.06,1.56,0.00,23.92,27.75,30.48,4.74,24.10,1008.80,2033.03,2822.50,2891.37,3114.52,349.76,343.73,27.60,0000 0000 0000 0000 000000
2015-05-19 12:58:30,0.03,1.56,0.00,23.92,27.74,30.47,4.76,24.13,1008.80,2033.00,2822.03,2891.04,3114.04,350.06,344.09,27.63,0000 0000 0000 0000 000000